| time (UTC) | temp F | wind direction | speed MPH | gust MPH | rain 1hr in | rain 24hr in | rain mn in | humidity % | barometer mb |
| 20260507043606 | 42 | 180 | 2.0 | 7.0 | 0.01 | 0.01 | 0.01 | 90 | 1013.5 |
| 20260507042606 | 42 | 196 | 2.0 | 5.0 | 0.01 | 0.01 | 0.01 | 90 | 1013.5 |
| 20260507041604 | 43 | 197 | 2.0 | 7.0 | 0.00 | 0.00 | 0.00 | 89 | 1013.5 |
| 20260507040602 | 43 | 216 | 1.0 | 5.0 | 0.00 | 0.00 | 0.00 | 88 | 1013.2 |
| 20260507035602 | 43 | 216 | 2.0 | 6.0 | 0.00 | 0.00 | 0.00 | 87 | 1013.1 |
| 20260507034600 | 44 | 216 | 3.0 | 6.0 | 0.00 | 0.00 | 0.00 | 85 | 1013.0 |
| 20260507033600 | 44 | 212 | 2.0 | 5.0 | 0.00 | 0.00 | 0.00 | 84 | 1012.8 |
| 20260507031559 | 44 | 212 | 2.0 | 5.0 | 0.00 | 0.00 | 0.00 | 82 | 1012.7 |
| 20260507030558 | 44 | 212 | 1.0 | 4.0 | 0.00 | 0.00 | 0.00 | 82 | 1012.6 |
| 20260507025558 | 44 | 212 | 2.0 | 5.0 | 0.00 | 0.00 | 0.00 | 82 | 1012.6 |
| 20260507024551 | 44 | 212 | 3.0 | 5.0 | 0.00 | 0.00 | 0.00 | 82 | 1012.5 |
| 20260507023552 | 44 | 212 | 3.0 | 5.0 | 0.00 | 0.00 | 0.00 | 81 | 1012.5 |
| 20260507022553 | 45 | 211 | 2.0 | 6.0 | 0.00 | 0.00 | 0.00 | 81 | 1012.4 |
| 20260507021552 | 45 | 214 | 2.0 | 5.0 | 0.00 | 0.00 | 0.00 | 81 | 1012.4 |
| 20260507020552 | 45 | 214 | 2.0 | 4.0 | 0.00 | 0.00 | 0.00 | 80 | 1012.4 |
| 20260507014552 | 45 | 225 | 3.0 | 6.0 | 0.00 | 0.00 | 0.00 | 78 | 1012.4 |
| 20260507013553 | 46 | 207 | 2.0 | 6.0 | 0.00 | 0.00 | 0.00 | 77 | 1012.3 |
| 20260507012551 | 46 | 231 | 2.0 | 7.0 | 0.00 | 0.00 | 0.00 | 78 | 1012.3 |
| 20260507011552 | 46 | 238 | 3.0 | 8.0 | 0.00 | 0.00 | 0.00 | 76 | 1012.3 |
| 20260507010552 | 46 | 240 | 4.0 | 8.0 | 0.00 | 0.00 | 0.00 | 75 | 1012.2 |
| 20260507005552 | 47 | 201 | 3.0 | 8.0 | 0.00 | 0.00 | 0.00 | 75 | 1012.1 |
| 20260507003549 | 47 | 203 | 3.0 | 6.0 | 0.00 | 0.00 | 0.00 | 72 | 1012.0 |
| 20260507001551 | 48 | 213 | 3.0 | 9.0 | 0.00 | 0.00 | 0.00 | 71 | 1011.9 |
| 20260507000549 | 48 | 221 | 5.0 | 8.0 | 0.00 | 0.00 | 0.00 | 71 | 1011.8 |
| 20260506235548 | 48 | 0.0 | 0.0 | 0.00 | 0.00 | 0.00 | 71 | 1011.8 | |
| 20260506234458 | 47 | 0.0 | 0.0 | 0.00 | 0.00 | 0.00 | 72 | 1011.7 | |
| 20260506233454 | 47 | 0.0 | 0.0 | 0.00 | 0.00 | 0.00 | 71 | 1011.7 | |
| 20260506232452 | 47 | 0.0 | 0.0 | 0.00 | 0.00 | 0.00 | 72 | 1011.7 | |
| 20260506231431 | 47 | 0.0 | 0.0 | 0.00 | 0.00 | 0.00 | 71 | 1011.7 | |
| 20260506230354 | 47 | 0.0 | 0.0 | 0.00 | 0.00 | 0.00 | 72 | 1011.7 | |
| 20260506225351 | 47 | 0.0 | 0.0 | 0.00 | 0.00 | 0.00 | 71 | 1011.6 | |
| 20260506224327 | 47 | 232 | 5.0 | 9.0 | 0.00 | 0.00 | 0.00 | 71 | 1011.5 |
| 20260506223254 | 47 | 232 | 5.0 | 9.0 | 0.00 | 0.00 | 0.00 | 71 | 1011.5 |
| 20260506222252 | 47 | 238 | 5.0 | 10.0 | 0.00 | 0.00 | 0.00 | 70 | 1011.3 |
| 20260506221252 | 48 | 224 | 4.0 | 10.0 | 0.00 | 0.00 | 0.00 | 70 | 1011.3 |
| 20260506214250 | 47 | 202 | 5.0 | 8.0 | 0.00 | 0.00 | 0.00 | 72 | 1011.2 |
| 20260506213250 | 47 | 220 | 4.0 | 9.0 | 0.00 | 0.00 | 0.00 | 71 | 1011.2 |
| 20260506212250 | 48 | 263 | 3.0 | 8.0 | 0.00 | 0.00 | 0.00 | 68 | 1011.0 |
| 20260506211250 | 48 | 181 | 3.0 | 9.0 | 0.00 | 0.00 | 0.00 | 70 | 1010.9 |
| 20260506210249 | 48 | 232 | 4.0 | 9.0 | 0.00 | 0.00 | 0.00 | 69 | 1010.9 |
| 20260506205250 | 48 | 224 | 5.0 | 10.0 | 0.00 | 0.00 | 0.00 | 69 | 1010.8 |
| 20260506204251 | 47 | 218 | 5.0 | 10.0 | 0.00 | 0.00 | 0.00 | 71 | 1010.7 |
| 20260506203249 | 47 | 235 | 5.0 | 9.0 | 0.00 | 0.00 | 0.00 | 71 | 1010.6 |
| 20260506202250 | 47 | 203 | 4.0 | 11.0 | 0.00 | 0.00 | 0.00 | 73 | 1010.5 |
| 20260506201251 | 47 | 290 | 5.0 | 11.0 | 0.00 | 0.00 | 0.00 | 72 | 1010.4 |
| 20260506200250 | 47 | 231 | 5.0 | 9.0 | 0.00 | 0.00 | 0.00 | 75 | 1010.3 |
| 20260506195250 | 47 | 207 | 4.0 | 9.0 | 0.00 | 0.00 | 0.00 | 76 | 1010.3 |
| 20260506194250 | 46 | 213 | 3.0 | 8.0 | 0.00 | 0.00 | 0.00 | 74 | 1010.3 |
| 20260506193249 | 46 | 213 | 4.0 | 8.0 | 0.00 | 0.00 | 0.00 | 75 | 1010.2 |
| 20260506192250 | 46 | 230 | 3.0 | 7.0 | 0.00 | 0.00 | 0.00 | 76 | 1010.1 |
| 20260506191250 | 45 | 225 | 3.0 | 7.0 | 0.00 | 0.00 | 0.00 | 75 | 1010.2 |
| 20260506190250 | 45 | 234 | 3.0 | 7.0 | 0.00 | 0.00 | 0.00 | 77 | 1010.1 |
| 20260506185250 | 45 | 237 | 3.0 | 7.0 | 0.00 | 0.00 | 0.00 | 78 | 1010.1 |
| 20260506184251 | 44 | 240 | 4.0 | 8.0 | 0.00 | 0.00 | 0.00 | 78 | 1010.0 |
| 20260506183250 | 44 | 220 | 5.0 | 9.0 | 0.00 | 0.00 | 0.00 | 80 | 1010.0 |
| 20260506182250 | 44 | 238 | 4.0 | 9.0 | 0.00 | 0.00 | 0.00 | 81 | 1010.0 |
| 20260506181250 | 43 | 223 | 4.0 | 9.0 | 0.00 | 0.00 | 0.00 | 82 | 1009.9 |
| 20260506180250 | 43 | 292 | 5.0 | 9.0 | 0.00 | 0.00 | 0.00 | 81 | 1009.8 |
| 20260506174250 | 43 | 248 | 3.0 | 8.0 | 0.00 | 0.00 | 0.00 | 81 | 1009.7 |
| 20260506173249 | 42 | 288 | 4.0 | 8.0 | 0.00 | 0.00 | 0.00 | 80 | 1009.7 |
| 20260506172250 | 42 | 244 | 4.0 | 7.0 | 0.00 | 0.00 | 0.00 | 80 | 1009.6 |
| 20260506171250 | 42 | 273 | 2.0 | 6.0 | 0.00 | 0.00 | 0.00 | 80 | 1009.6 |
| 20260506170250 | 42 | 266 | 2.0 | 5.0 | 0.00 | 0.00 | 0.00 | 80 | 1009.7 |
| 20260506165250 | 42 | 265 | 2.0 | 5.0 | 0.00 | 0.00 | 0.00 | 82 | 1009.5 |
| 20260506164247 | 41 | 265 | 1.0 | 5.0 | 0.00 | 0.00 | 0.00 | 81 | 1009.4 |
| 20260506163247 | 41 | 266 | 0.0 | 0.0 | 0.00 | 0.00 | 0.00 | 81 | 1009.3 |
| 20260506162246 | 41 | 266 | 0.0 | 0.0 | 0.00 | 0.00 | 0.00 | 82 | 1009.3 |
| 20260506160246 | 40 | 266 | 0.0 | 0.0 | 0.00 | 0.00 | 0.00 | 84 | 1009.2 |
| 20260506155246 | 39 | 266 | 0.0 | 0.0 | 0.00 | 0.00 | 0.00 | 85 | 1009.2 |
| 20260506154246 | 39 | 266 | 0.0 | 0.0 | 0.00 | 0.00 | 0.00 | 87 | 1009.2 |
| 20260506153244 | 38 | 266 | 0.0 | 0.0 | 0.00 | 0.00 | 0.00 | 88 | 1009.2 |
| 20260506152243 | 38 | 266 | 0.0 | 0.0 | 0.00 | 0.00 | 0.00 | 88 | 1009.1 |
| 20260506151244 | 37 | 266 | 0.0 | 0.0 | 0.00 | 0.00 | 0.00 | 88 | 1009.1 |
| 20260506150238 | 37 | 266 | 0.0 | 0.0 | 0.00 | 0.00 | 0.00 | 88 | 1009.0 |
| 20260506145237 | 37 | 266 | 0.0 | 0.0 | 0.00 | 0.00 | 0.00 | 87 | 1009.0 |
| 20260506144239 | 37 | 266 | 0.0 | 1.0 | 0.00 | 0.00 | 0.00 | 86 | 1009.0 |
| 20260506143238 | 37 | 266 | 0.0 | 1.0 | 0.00 | 0.00 | 0.00 | 85 | 1009.0 |
| 20260506142238 | 37 | 266 | 0.0 | 1.0 | 0.00 | 0.00 | 0.00 | 85 | 1009.0 |
| 20260506141236 | 37 | 266 | 0.0 | 2.0 | 0.00 | 0.00 | 0.00 | 85 | 1009.0 |
| 20260506140236 | 37 | 266 | 0.0 | 0.0 | 0.00 | 0.00 | 0.00 | 84 | 1009.0 |
| 20260506135236 | 37 | 266 | 0.0 | 0.0 | 0.00 | 0.00 | 0.00 | 82 | 1009.1 |
| 20260506134235 | 38 | 266 | 0.0 | 0.0 | 0.00 | 0.00 | 0.00 | 81 | 1009.0 |
| 20260506133236 | 38 | 266 | 0.0 | 2.0 | 0.00 | 0.00 | 0.00 | 80 | 1009.0 |
| 20260506132235 | 38 | 266 | 0.0 | 5.0 | 0.00 | 0.00 | 0.00 | 79 | 1009.0 |
| 20260506131237 | 39 | 266 | 2.0 | 5.0 | 0.00 | 0.00 | 0.00 | 79 | 1008.8 |
| 20260506130236 | 39 | 266 | 2.0 | 5.0 | 0.00 | 0.00 | 0.00 | 78 | 1008.8 |
| 20260506124235 | 39 | 259 | 3.0 | 7.0 | 0.00 | 0.00 | 0.00 | 77 | 1008.7 |
| 20260506123236 | 39 | 244 | 3.0 | 7.0 | 0.00 | 0.00 | 0.00 | 77 | 1008.7 |
| 20260506122236 | 40 | 244 | 4.0 | 7.0 | 0.00 | 0.00 | 0.00 | 77 | 1008.6 |
| 20260506121234 | 40 | 250 | 3.0 | 6.0 | 0.00 | 0.00 | 0.00 | 76 | 1008.5 |
| 20260506115229 | 40 | 349 | 1.0 | 3.0 | 0.00 | 0.00 | 0.00 | 74 | 1008.4 |
| 20260506113230 | 40 | 350 | 1.0 | 4.0 | 0.00 | 0.00 | 0.00 | 73 | 1008.5 |
| 20260506112230 | 40 | 350 | 3.0 | 5.0 | 0.00 | 0.00 | 0.00 | 73 | 1008.4 |
| 20260506111231 | 40 | 17 | 1.0 | 4.0 | 0.00 | 0.00 | 0.00 | 72 | 1008.4 |
| 20260506110230 | 40 | 18 | 1.0 | 4.0 | 0.00 | 0.00 | 0.00 | 72 | 1008.4 |
| 20260506104228 | 40 | 49 | 1.0 | 4.0 | 0.00 | 0.00 | 0.00 | 71 | 1008.2 |
| 20260506103228 | 40 | 49 | 2.0 | 5.0 | 0.00 | 0.00 | 0.00 | 71 | 1008.2 |
| 20260506102227 | 40 | 49 | 1.0 | 4.0 | 0.00 | 0.00 | 0.00 | 72 | 1008.1 |
| 20260506101228 | 40 | 49 | 0.0 | 3.0 | 0.00 | 0.00 | 0.00 | 73 | 1007.9 |
| 20260506100225 | 39 | 49 | 1.0 | 3.0 | 0.00 | 0.00 | 0.00 | 73 | 1007.8 |
| 20260506095225 | 39 | 49 | 0.0 | 6.0 | 0.00 | 0.00 | 0.00 | 75 | 1007.8 |
| 20260506094226 | 38 | 49 | 1.0 | 6.0 | 0.00 | 0.00 | 0.00 | 75 | 1007.6 |
| 20260506093226 | 39 | 55 | 1.0 | 3.0 | 0.00 | 0.00 | 0.00 | 75 | 1007.5 |
| 20260506092225 | 39 | 55 | 0.0 | 3.0 | 0.00 | 0.00 | 0.00 | 75 | 1007.5 |
| 20260506091222 | 39 | 55 | 1.0 | 3.0 | 0.00 | 0.00 | 0.00 | 73 | 1007.4 |
| 20260506090223 | 40 | 55 | 2.0 | 4.0 | 0.00 | 0.00 | 0.00 | 73 | 1007.3 |
| 20260506084219 | 40 | 55 | 1.0 | 3.0 | 0.00 | 0.00 | 0.00 | 71 | 1007.3 |
| 20260506083218 | 40 | 55 | 1.0 | 4.0 | 0.00 | 0.00 | 0.00 | 70 | 1007.1 |
| 20260506082218 | 41 | 55 | 1.0 | 4.0 | 0.00 | 0.00 | 0.00 | 69 | 1007.0 |
| 20260506081216 | 42 | 56 | 0.0 | 4.0 | 0.00 | 0.00 | 0.00 | 68 | 1006.9 |
| 20260506080214 | 42 | 57 | 1.0 | 8.0 | 0.00 | 0.00 | 0.00 | 66 | 1006.9 |
| 20260506073212 | 43 | 54 | 3.0 | 10.0 | 0.00 | 0.00 | 0.00 | 65 | 1006.7 |
| 20260506072212 | 43 | 28 | 3.0 | 9.0 | 0.00 | 0.00 | 0.00 | 66 | 1006.7 |
| 20260506061208 | 44 | 66 | 5.0 | 11.0 | 0.00 | 0.00 | 0.00 | 64 | 1005.9 |
| 20260506060202 | 44 | 52 | 4.0 | 11.0 | 0.00 | 0.00 | 0.00 | 63 | 1005.8 |
| 20260506051154 | 47 | 83 | 5.0 | 12.0 | 0.00 | 0.00 | 0.00 | 59 | 1005.4 |
| 20260506050154 | 48 | 53 | 3.0 | 11.0 | 0.00 | 0.00 | 0.00 | 59 | 1005.3 |